Location: Unspecified
(0.0000°N, 0.0000°E)
Time: 12:14:11
(UTC+00:00)

Vanguard 3 - Visible Passes

Search period start: 27 June 2017 00:00
Search period end: 07 July 2017 00:00
Orbit: 507 x 3266 km, 33.4° (Epoch: 26 June)

Date Brightness Start Highest point End Pass type
(mag) Time Alt. Az. Time Alt. Az. Time Alt. Az.
27 Jun 10.8 19:23:26 10° NNW 19:37:05 23° NNE 19:48:03 10° ENE visible
27 Jun 9.8 21:40:12 10° NW 21:53:57 44° N 21:53:57 44° N visible
27 Jun 11.1 23:57:49 10° WNW 23:58:31 12° WNW 23:58:31 12° WNW visible
28 Jun 11.2 18:05:54 10° NNW 18:18:20 19° N 18:29:43 10° NE visible
28 Jun 10.1 20:23:22 10° NW 20:39:17 34° NNE 20:44:10 28° NE visible
28 Jun 10.2 22:40:16 10° NW 22:48:44 35° NW 22:48:44 35° NW visible
29 Jun 10.8 19:06:35 10° NNW 19:21:37 26° NNE 19:33:43 10° ENE visible
29 Jun 9.6 21:23:07 10° NW 21:38:58 54° NNE 21:38:58 54° NNE visible
29 Jun 11.0 23:41:27 10° WNW 23:43:32 15° WNW 23:43:32 15° WNW visible
30 Jun 10.0 20:06:17 10° NW 20:23:37 40° NNE 20:29:14 31° ENE visible
30 Jun 10.0 22:23:27 10° NW 22:33:49 43° NW 22:33:49 43° NW visible
01 Jul 10.7 18:49:47 10° NNW 19:05:59 30° NNE 19:19:11 10° ENE visible
01 Jul 9.4 21:06:04 10° NW 21:24:07 65° NNE 21:24:07 65° NNE visible
01 Jul 10.9 23:25:08 10° WNW 23:28:41 18° WNW 23:28:41 18° WNW visible
02 Jul 10.0 19:49:17 10° NW 20:07:44 46° NNE 20:14:26 33° ENE visible
02 Jul 9.9 22:06:41 10° WNW 22:19:01 50° WNW 22:19:01 50° WNW visible
03 Jul 10.7 18:33:03 10° NNW 18:50:10 34° NNE 19:04:27 10° E visible
03 Jul 9.3 20:49:08 10° NW 21:08:21 75° NE 21:09:23 73° ENE visible
03 Jul 10.8 23:08:53 10° WNW 23:13:58 21° W 23:13:58 21° W visible
04 Jul 9.9 19:32:23 10° NW 19:51:40 54° NNE 19:59:47 32° E visible
04 Jul 9.8 21:50:01 10° WNW 22:04:22 56° W 22:04:22 56° W visible
05 Jul 10.7 18:16:24 10° NW 18:34:09 39° NNE 18:49:30 10° E visible
05 Jul 9.3 20:32:18 10° NW 20:52:09 84° NE 20:54:48 69° ESE visible
05 Jul 10.7 22:52:44 10° W 22:59:24 24° W 22:59:24 24° W visible
06 Jul 10.0 19:15:37 10° NW 19:35:25 61° NE 19:45:16 29° E visible
06 Jul 9.7 21:33:27 10° WNW 21:49:52 57° WSW 21:49:52 57° WSW visible
